Regional Weather Roundup
Issued by NWS

Home | Current Version | Previous Version | Graphics & Text | Print | Product List | Glossary Off
Versions: 1 2 3 4 5 6 7 8 9 10 11 12 13 14 15 16 17 18 19 20 21 22 23 24 25 26 27 28 29 30 31 32 33 34 35 36 37 38 39 40 41 42 43 44 45 46 47 48 49 50

000
ASUS43 KFSD 280302
RWRSD

WEATHER ROUNDUP FOR SOUTH DAKOTA
NATIONAL WEATHER SERVICE SIOUX FALLS SD
1000 PM CDT SAT AUG 27 2016

NOTE: "FAIR" INDICATES FEW OR NO CLOUDS BELOW 12,000 FEET WITH NO
SIGNIFICANT WEATHER AND/OR OBSTRUCTIONS TO VISIBILITY.


SDZ001>005-009-010-012>017-280400-
NORTHWEST AND NORTH CENTRAL SOUTH DAKOTA

CITY           SKY/WX    TMP DP  RH WIND       PRES   REMARKS
BUFFALO          N/A     66  51  58 SE9       29.84R
FAITH            N/A     72  57  59 SE15      29.90S
MOBRIDGE       PTCLDY    71  53  52 E12       29.89R
$$

SDZ012>016-024>037-041>051-057-063-072>074-280400-
SOUTHWEST AND SOUTH CENTRAL SOUTH DAKOTA

CITY           SKY/WX    TMP DP  RH WIND       PRES   REMARKS
RAPID CTY ARPT MOCLDY    65  52  62 E7        29.92R
PIERRE         CLEAR     73  58  59 E13       29.89R
CUSTER         CLOUDY    66  44  45 S5        30.07R
ELLSWORTH AFB  MOCLDY    71  52  51 SE8       29.92
PHILIP         CLOUDY    67  62  84 E8        29.90R
PINE RIDGE     CLEAR     73  52  47 S9        29.94R
WINNER         FAIR      73  62  68 S8        29.93R
$$

SDZ004>011-016>023-039-040-280400-
NORTHEAST SOUTH DAKOTA

CITY           SKY/WX    TMP DP  RH WIND       PRES   REMARKS
ABERDEEN       CLEAR     64  60  87 SE6       29.94R
WATERTOWN      CLEAR     68  62  81 SE7       30.00R
BROOKINGS      CLEAR     66  62  87 SE8       30.01R
$$

SDZ017-020-022-023-036>040-048>070-280400-
SOUTHEAST SOUTH DAKOTA

CITY           SKY/WX    TMP DP  RH WIND       PRES   REMARKS
SIOUX FALLS    PTCLDY    71  65  81 S7        30.02R
HURON          PTCLDY    71  63  75 SE12      29.95R
CHAMBERLAIN    MOCLDY    75  64  69 SE10      29.93S
MITCHELL       CLEAR     72  65  78 SE9       29.97R
YANKTON        CLEAR     70  63  78 E7        29.99R
$$

ABBREVIATIONS USED IN REMARKS
   TC - TEMPERATURE IN CELSIUS
  WCI - WIND CHILL INDEX
   HX - HEAT INDEX
  VSB - VISIBILITY





USA.gov is the U.S. government's official web portal to all federal, state and local government web resources and services.